[[{"header":{"parameterUnit":"m.s-1","parameterCategory":1,"la1":30.2991,"la2":30.254,"lo1":-89.0895,"lo2":-89.0444,"dy":0.0017,"dx":0.0017,"nx":28,"ny":28,"refTime":"2025-09-15T09:00:00:Z","depth":0,"parameterNumber":2,"parameterNumberName":"U-component_of_WINDS"},"data":[0,0,0,0,0,0,0,0,0,0,0,0,0,0,0,0,0,0,0,0,0,0,0,0,0,0,0,0,0,0,0,0,0,0,0,0,0,0,0,0,0,0,0,0,0,0,0,0,0,0,0,0,0,0,0,0,0,0,-0.5193,-0.5193,0,-0.5156,-0.5156,-0.5155,-0.5118,-0.5117,-0.5117,-0.5116,-0.5078,-0.5077,-0.5077,0,0,0,0,0,0,0,0,0,0,0,0,0,-0.5233,-0.5232,-0.5193,-0.5193,-0.5192,-0.5156,-0.5156,-0.5155,-0.5118,-0.5117,-0.5117,-0.5116,-0.5078,-0.5077,-0.5077,0,0,0,0,0,0,0,0,0,0,0,0,0,-0.5208,-0.5232,-0.5193,-0.5169,-0.5167,-0.5156,-0.5156,-0.5155,-0.5118,-0.5117,-0.5117,-0.5116,-0.5078,-0.5077,-0.5077,-0.5086,0,0,-0.5074,-0.5074,0,0,0,0,0,0,0,0,-0.5209,-0.5206,-0.5173,-0.5171,-0.5168,-0.5141,-0.5155,-0.5132,-0.5118,-0.5137,-0.5116,-0.5115,-0.5099,-0.5097,-0.5091,-0.5084,-0.5083,-0.5074,-0.5073,-0.5073,-0.5073,0,0,0,0,0,0,0,-0.5211,-0.5208,-0.5179,-0.5173,-0.517,-0.5161,-0.5156,-0.5151,-0.5123,-0.5135,-0.5132,-0.5128,-0.5098,-0.5092,-0.509,-0.5082,-0.5074,-0.5073,-0.5073,-0.5072,-0.5083,-0.5083,0,0,0,0,0,0,-0.5216,-0.5209,-0.518,-0.5177,-0.5187,-0.5161,-0.5156,-0.515,-0.5123,-0.5118,-0.5129,-0.5127,-0.5094,-0.5091,-0.5089,-0.5099,-0.5073,-0.5072,-0.5072,-0.5082,-0.5083,-0.5084,0,0,0,0,0,0,-0.5217,-0.5214,-0.5181,-0.5193,-0.5188,-0.5161,-0.5155,-0.515,-0.5144,-0.5118,-0.5113,-0.5128,-0.5093,-0.509,-0.5087,-0.5097,-0.5072,-0.5071,-0.5081,-0.5082,-0.5083,-0.5119,0,0,0,0,0,0,-0.5219,-0.5215,-0.5218,-0.5193,-0.5187,-0.5181,-0.5156,-0.515,-0.5143,-0.514,-0.5116,-0.5111,-0.5092,-0.5089,-0.5087,-0.5095,-0.507,-0.508,-0.5081,-0.5083,-0.5117,-0.5121,-0.5125,0,0,0,0,0,-0.522,-0.5229,-0.5218,-0.5215,-0.5191,-0.5181,-0.5178,-0.5156,-0.5144,-0.5147,-0.513,-0.5112,-0.5096,-0.5089,-0.5086,-0.5095,-0.5079,-0.5081,-0.5083,-0.5115,-0.512,-0.5125,0,0,0,0,0,0,-0.5255,-0.5225,-0.5213,-0.5214,-0.52,-0.5175,-0.5178,-0.5162,-0.5151,-0.5149,-0.5122,-0.5117,-0.5118,-0.5106,-0.5098,-0.5103,-0.5085,-0.5087,-0.5111,-0.5116,-0.512,-0.5123,-0.507,0,0,0,0,0,-0.5263,-0.5258,-0.5232,-0.5235,-0.5229,-0.5205,-0.52,-0.5184,-0.5169,-0.5163,-0.5146,-0.5132,-0.5124,-0.5119,-0.511,-0.5115,-0.511,-0.512,-0.5124,-0.5127,-0.5129,-0.5131,-0.5136,-0.5089,-0.5089,-0.5089,0,0,-0.5279,-0.5262,-0.526,-0.5242,-0.523,-0.5225,-0.52,-0.5196,-0.5193,-0.5162,-0.5159,-0.5147,-0.5129,-0.5131,-0.5131,-0.5121,-0.5141,-0.513,-0.5133,-0.5132,-0.5134,-0.5138,-0.5142,-0.5091,-0.509,-0.509,0,0,-0.5306,-0.5292,-0.5294,-0.5283,-0.5265,-0.5249,-0.5249,-0.5226,-0.5217,-0.5214,-0.5191,-0.5187,-0.5173,-0.5162,-0.5155,-0.5179,-0.5162,-0.5177,-0.5198,-0.5201,-0.5205,-0.5208,-0.5217,-0.5221,-0.5179,-0.5179,-0.5179,0,-0.5328,-0.532,-0.5297,-0.5295,-0.5288,-0.5261,-0.5263,-0.5253,-0.5233,-0.5229,-0.5218,-0.5202,-0.5188,-0.5187,-0.5193,-0.5188,-0.5188,-0.5179,-0.5206,-0.5209,-0.5212,-0.522,-0.5224,-0.5181,-0.518,-0.518,-0.518,0,-0.5349,-0.5344,-0.5347,-0.5329,-0.5323,-0.5322,-0.53,-0.5296,-0.5281,-0.5267,-0.5264,-0.5247,-0.5235,-0.5234,-0.5219,-0.5231,-0.5226,-0.5211,-0.5193,-0.5219,-0.5226,-0.5229,-0.5183,-0.5183,-0.5182,-0.5182,0,0,-0.5395,-0.5366,-0.5367,-0.5359,-0.5338,-0.5334,-0.5333,-0.5321,-0.5319,-0.5306,-0.5305,-0.5295,-0.5282,-0.5274,-0.5258,-0.5261,-0.5282,-0.5246,-0.5245,-0.5254,-0.5295,-0.5307,-0.5311,-0.5271,-0.5272,-0.5272,-0.5297,0,-0.5419,-0.5415,-0.5395,-0.5398,-0.5393,-0.5369,-0.5368,-0.5355,-0.5342,-0.5337,-0.5322,-0.5315,-0.5298,-0.5293,-0.5295,-0.5279,-0.529,-0.5277,-0.527,-0.527,-0.5275,-0.5314,-0.5326,-0.535,-0.53,-0.53,-0.5301,0,-0.5445,-0.5435,-0.5437,-0.5418,-0.5415,-0.5415,-0.5403,-0.5398,-0.5383,-0.5374,-0.5365,-0.5348,-0.5346,-0.5329,-0.5327,-0.5318,-0.5315,-0.5307,-0.5307,-0.5305,-0.5287,-0.5314,-0.5357,-0.5361,-0.5305,-0.5305,-0.5304,0,-0.548,-0.5467,-0.5467,-0.546,-0.5437,-0.5438,-0.5428,-0.5413,-0.5407,-0.5397,-0.5394,-0.5384,-0.5378,-0.5371,-0.5352,-0.5341,-0.5352,-0.5333,-0.5344,-0.5345,-0.5347,-0.5347,-0.539,-0.5345,-0.5345,-0.5345,-0.5344,0,-0.5508,-0.551,-0.5482,-0.5482,-0.5484,-0.5462,-0.5465,-0.5453,-0.544,-0.5437,-0.5415,-0.5414,-0.5388,-0.5384,-0.5369,-0.537,-0.5367,-0.536,-0.5355,-0.5361,-0.5363,-0.5358,-0.5356,-0.5345,-0.5345,-0.5345,-0.5345,0,-0.5546,-0.5527,-0.5526,-0.5504,-0.5499,-0.5502,-0.5483,-0.5483,-0.5469,-0.5466,-0.5464,-0.5442,-0.5436,-0.5416,-0.5405,-0.5395,-0.54,-0.5393,-0.5405,-0.5403,-0.5415,-0.5415,-0.5457,-0.5462,-0.5413,-0.5414,-0.5414,0,-0.5566,-0.5567,-0.5546,-0.5543,-0.5534,-0.553,-0.5524,-0.5503,-0.5498,-0.5483,-0.5484,-0.5476,-0.5469,-0.546,-0.5444,-0.5435,-0.5427,-0.5443,-0.5426,-0.5432,-0.5428,-0.5428,-0.5429,-0.5446,-0.5447,-0.5448,-0.5448,0,-0.5602,-0.5593,-0.5586,-0.5577,-0.5571,-0.5562,-0.5553,-0.5551,-0.5527,-0.5524,-0.5517,-0.5512,-0.5501,-0.5494,-0.5483,-0.5473,-0.5457,-0.5454,-0.5456,-0.5462,-0.547,-0.5466,-0.5416,-0.5453,-0.5452,-0.5452,-0.5452,-0.5451,-0.5631,-0.5632,-0.5618,-0.5611,-0.5602,-0.5593,-0.5592,-0.5578,-0.5573,-0.5562,-0.555,-0.5546,-0.5532,-0.5516,-0.5508,-0.5504,-0.5495,-0.5499,-0.5499,-0.55,-0.5504,-0.547,-0.5502,-0.5502,-0.5502,-0.5502,-0.5502,0,-0.5667,-0.5657,-0.5651,-0.5638,-0.5634,-0.5619,-0.5608,-0.5605,-0.5602,-0.5591,-0.5584,-0.5578,-0.5571,-0.5554,-0.5546,-0.5547,-0.5539,-0.5545,-0.5545,-0.5543,-0.5512,-0.5511,-0.5552,-0.5552,-0.5552,-0.5552,-0.5552,-0.5552,-0.5685,-0.5685,-0.5675,-0.5671,-0.566,-0.5656,-0.5651,-0.5644,-0.5635,-0.5629,-0.5623,-0.5612,-0.5599,-0.5591,-0.5584,-0.558,-0.5578,-0.5587,-0.558,-0.555,-0.5545,-0.5541,-0.554,-0.5586,-0.5586,-0.5611,-0.5612,-0.5612]},{"header":{"parameterUnit":"m.s-1","parameterCategory":1,"la1":30.2991,"la2":30.254,"lo1":-89.0895,"lo2":-89.0444,"dy":0.0017,"dx":0.0017,"nx":28,"ny":28,"refTime":"2025-09-15T09:00:00:Z","depth":0,"parameterNumber":3,"parameterNumberName":"V-component_of_WINDS"},"data":[0,0,0,0,0,0,0,0,0,0,0,0,0,0,0,0,0,0,0,0,0,0,0,0,0,0,0,0,0,0,0,0,0,0,0,0,0,0,0,0,0,0,0,0,0,0,0,0,0,0,0,0,0,0,0,0,0,0,2.1561,2.156,0,2.1488,2.1488,2.1487,2.1499,2.1501,2.1502,2.1503,2.1422,2.1419,2.1416,0,0,0,0,0,0,0,0,0,0,0,0,0,2.1703,2.17,2.1561,2.156,2.1559,2.1489,2.1488,2.1486,2.1499,2.1501,2.1502,2.1504,2.1423,2.1419,2.1415,0,0,0,0,0,0,0,0,0,0,0,0,0,2.1637,2.1699,2.1561,2.1557,2.1556,2.1489,2.1487,2.1486,2.1499,2.1501,2.1503,2.1505,2.1425,2.142,2.1415,2.1345,0,0,2.1399,2.1397,0,0,0,0,0,0,0,0,2.164,2.1631,2.1558,2.1557,2.1556,2.1505,2.1508,2.1439,2.1498,2.152,2.1503,2.1506,2.1448,2.1441,2.1423,2.1341,2.1338,2.1399,2.1396,2.1394,2.1392,0,0,0,0,0,0,0,2.1645,2.1634,2.1532,2.1557,2.1556,2.1556,2.1549,2.1495,2.1474,2.1519,2.1519,2.1511,2.1447,2.1428,2.1421,2.1336,2.1399,2.1395,2.1392,2.139,2.1191,2.1189,0,0,0,0,0,0,2.1652,2.1638,2.1534,2.153,2.1604,2.1552,2.1544,2.1519,2.1475,2.147,2.1509,2.1512,2.1435,2.1427,2.1418,2.1331,2.1394,2.1389,2.1386,2.1193,2.1191,2.1188,0,0,0,0,0,0,2.1655,2.1642,2.1537,2.1584,2.1571,2.1548,2.152,2.1517,2.1497,2.1468,2.1463,2.1494,2.1437,2.1425,2.1363,2.1329,2.1387,2.1382,2.1196,2.1193,2.119,2.1159,0,0,0,0,0,0,2.1659,2.1643,2.1618,2.1584,2.1568,2.1485,2.1518,2.1514,2.1489,2.1492,2.1452,2.1447,2.1437,2.1371,2.1358,2.1323,2.1378,2.1199,2.1195,2.1191,2.1162,2.1155,2.1148,0,0,0,0,0,2.1664,2.1611,2.1617,2.1604,2.1537,2.1483,2.1474,2.1466,2.1487,2.146,2.1441,2.1448,2.1336,2.1364,2.135,2.1313,2.1201,2.1196,2.1191,2.1166,2.1156,2.1148,0,0,0,0,0,0,2.164,2.1607,2.1612,2.1548,2.1518,2.1485,2.1451,2.1456,2.1419,2.1422,2.1412,2.1403,2.1339,2.132,2.1353,2.1242,2.1271,2.1263,2.1256,2.1247,2.124,2.1244,2.1374,0,0,0,0,0,2.1628,2.1589,2.1561,2.1507,2.1492,2.1474,2.145,2.1447,2.1415,2.1402,2.1379,2.1345,2.1302,2.1274,2.1233,2.1161,2.115,2.1128,2.1121,2.1115,2.1107,2.1065,2.1054,2.1172,2.1172,2.1172,0,0,2.1601,2.1578,2.1554,2.1501,2.1478,2.1436,2.1463,2.1418,2.1385,2.1395,2.1334,2.1316,2.1278,2.121,2.1179,2.1192,2.1073,2.1109,2.1104,2.1099,2.1059,2.1047,2.1038,2.1168,2.1169,2.1169,0,0,2.1529,2.151,2.1461,2.1438,2.1403,2.1392,2.138,2.1347,2.1335,2.1275,2.1281,2.1241,2.1168,2.114,2.1116,2.1035,2.1039,2.1022,2.0982,2.0941,2.0932,2.0924,2.0892,2.0881,2.1015,2.1015,2.1015,0,2.1499,2.1438,2.1435,2.1388,2.1364,2.1373,2.1322,2.1299,2.1252,2.1233,2.125,2.1158,2.1133,2.1058,2.1038,2.1019,2.1003,2.1025,2.0934,2.0926,2.0918,2.0887,2.0876,2.1013,2.1013,2.1013,2.1014,0,2.1402,2.1359,2.1324,2.128,2.1252,2.1203,2.119,2.1162,2.1161,2.1147,2.1084,2.1056,2.1008,2.0991,2.0989,2.0914,2.0923,2.0937,2.0965,2.0905,2.0876,2.0864,2.101,2.1011,2.1011,2.1012,0,0,2.1311,2.1267,2.1254,2.1233,2.1196,2.1162,2.1113,2.1069,2.1043,2.1011,2.0967,2.0906,2.0918,2.0891,2.0887,2.0851,2.0785,2.0869,2.0868,2.0852,2.0698,2.0685,2.0672,2.0789,2.0787,2.0786,2.07,0,2.1235,2.1151,2.1146,2.1068,2.1027,2.1036,2.0993,2.0964,2.095,2.0911,2.0895,2.085,2.0872,2.0855,2.0821,2.0801,2.0753,2.0807,2.0745,2.0743,2.0752,2.0657,2.0644,2.0564,2.0689,2.0687,2.0686,0,2.1133,2.1099,2.1018,2.0986,2.0968,2.093,2.0888,2.0853,2.0819,2.0811,2.0782,2.0782,2.0729,2.0762,2.0687,2.0723,2.0698,2.0684,2.0681,2.0672,2.0709,2.0643,2.0539,2.0526,2.0668,2.067,2.0671,0,2.1072,2.1006,2.0949,2.0931,2.0893,2.0865,2.0847,2.0816,2.079,2.0753,2.0735,2.0691,2.0667,2.0632,2.062,2.0645,2.0544,2.0577,2.0533,2.0533,2.0509,2.051,2.0397,2.0498,2.0498,2.0499,2.0499,0,2.0985,2.0934,2.092,2.0885,2.0827,2.0822,2.0764,2.0748,2.072,2.068,2.0684,2.0645,2.0633,2.0591,2.0581,2.0519,2.0509,2.0499,2.0496,2.0496,2.0497,2.0477,2.0481,2.0496,2.0496,2.0497,2.0497,0,2.0906,2.0895,2.0832,2.0802,2.0793,2.0751,2.0724,2.0688,2.0676,2.0624,2.0611,2.059,2.0541,2.0527,2.0467,2.046,2.0387,2.0391,2.0398,2.0397,2.0354,2.0357,2.0221,2.0201,2.0319,2.0318,2.0317,0,2.0849,2.0811,2.0776,2.075,2.0732,2.069,2.0663,2.0656,2.0627,2.0587,2.0555,2.0507,2.0469,2.039,2.0367,2.0322,2.0322,2.0278,2.0315,2.0316,2.0318,2.0319,2.0314,2.027,2.0268,2.0268,2.0267,0,2.0749,2.0746,2.0708,2.0668,2.0636,2.0604,2.0573,2.0551,2.0539,2.0506,2.0457,2.0427,2.0368,2.0319,2.0272,2.0252,2.0255,2.0256,2.0243,2.0241,2.0246,2.024,2.0376,2.0258,2.0259,2.026,2.026,2.026,2.0677,2.0643,2.0613,2.057,2.0547,2.0517,2.0482,2.0465,2.0425,2.0377,2.0375,2.0321,2.0288,2.0226,2.0203,2.0159,2.0172,2.0153,2.0148,2.0143,2.0138,2.0256,2.0151,2.0151,2.0151,2.0152,2.0152,0,2.0575,2.0557,2.0518,2.0475,2.044,2.0451,2.0417,2.0386,2.034,2.0309,2.0272,2.0214,2.0167,2.0142,2.0094,2.0064,2.0064,2.0051,2.0052,2.0046,2.0131,2.0146,2.0052,2.0052,2.0052,2.0052,2.0052,2.0052,2.0518,2.0459,2.0452,2.0381,2.0362,2.0311,2.029,2.0262,2.0237,2.0174,2.0136,2.0121,2.0091,2.0042,1.9998,1.9992,1.9972,1.9957,1.9951,2.003,2.0041,2.005,2.0064,1.9954,1.9954,1.987,1.9869,1.9869]}]]